Regional Weather Roundup
Issued by NWS

Home | Current Version | Previous Version | Text Only | Print | Product List | Glossary On
Versions: 1 2 3 4 5 6 7 8 9 10 11 12 13 14 15 16 17 18 19 20 21 22 23 24 25 26 27
000
ASUS45 KTFX 240610
RWRMT
MONTANA REGIONAL WEATHER ROUNDUP
NATIONAL WEATHER SERVICE GREAT FALLS MT
1200 AM MDT SUN JUL 24 2016

NOTE: "FAIR" INDICATES FEW OR NO CLOUDS BELOW 12000 FEET WITH NO
SIGNIFICANT WEATHER AND/OR OBSTRUCTIONS TO VISIBILITY.

MTZ001>007-043-240700-
WEST OF THE DIVIDE

CITY           SKY/WX    TMP DP  RH WIND       PRES   REMARKS
KALISPELL      CLEAR     56  47  71 E8        30.12R
MISSOULA       CLEAR     62  43  49 MISG      30.15R
BUTTE          CLEAR     51  35  54 SE8       30.24R
MULLAN PASS    CLEAR     50  40  68 NW5       30.26F
DEER LODGE       N/A     54  39  58 CALM      30.22R
EUREKA           N/A     61  46  59 CALM      30.11S
HAMILTON         N/A     61  43  51 CALM      30.16R
LIBBY            N/A     57  43  58 SE5       30.14S
RONAN            N/A     54  47  77 CALM      30.18R
$$

MTZ008-052>055-240700-
SOUTHWEST MONTANA

CITY           SKY/WX    TMP DP  RH WIND       PRES   REMARKS
BOZEMAN        CLOUDY    67  38  34 W9        30.16R
DILLON         CLEAR     59  38  45 NE9       30.18R
W YELLOWSTONE  CLOUDY    46  37  71 CALM      30.27S
ENNIS          CLEAR     54  37  54 CALM      30.24R
THREE FORKS      N/A     64  16  15 NW2       30.13S
TWIN BRIDGES     N/A     67  33  28 N10       30.14R
$$

MTZ009-010-012-014-046-048-049-054-240700-
EAST SLOPES AND CENTRAL MONTANA

CITY           SKY/WX    TMP DP  RH WIND       PRES   REMARKS
CUT BANK       CLEAR     55  40  56 W5        30.09R
GREAT FALLS    CLOUDY    61  39  44 W6        30.11R
MALMSTROM AFB  CLOUDY    65  39  38 SW3       30.10R
HELENA         CLEAR     65  36  34 SW7       30.13S
CHOTEAU          N/A     63  34  34 W7        30.13R
CONRAD           N/A     53  43  69 W2        30.11R
$$

MTZ011-013-016-021-045-047-050-051-240700-
NORTH CENTRAL MONTANA

CITY           SKY/WX    TMP DP  RH WIND       PRES   REMARKS
HAVRE          MOCLDY    62  51  67 MISG      30.02R
LEWISTOWN      CLEAR     56  47  71 SE6       30.12S
N BAR RANCH    CLOUDY    61  45  55 W6        30.16S
CHINOOK          N/A     61  55  82 CALM      30.02R
$$

MTZ017>020-022>027-061-062-240700-
NORTHEAST MONTANA

CITY           SKY/WX    TMP DP  RH WIND       PRES   REMARKS
GLASGOW        PTCLDY    62  51  67 SE6       30.02R
JORDAN           N/A     60  49  66 CALM      30.06R
SIDNEY         PTCLDY    58  53  84 CALM      30.01R
WOLF POINT     CLEAR     57  51  80 W5        30.01R
PLENTYWOOD       N/A     57  55  94 W5        29.98R
POPLAR           N/A     63  52  67 CALM      30.01R
SCOBEY           N/A     56  48  74 CALM      30.00R
$$

MTZ028>42-056>058-240700-
SOUTHCENTRAL AND SOUTHEAST MONTANA

CITY           SKY/WX    TMP DP  RH WIND       PRES   REMARKS
BAKER          CLEAR     61  50  67 NW5       30.07R
BILLINGS       PTCLDY    70  45  40 SW3       30.11R
LIVINGSTON     PTCLDY    67  38  34 E5        30.14F
MILES CITY     CLEAR     68  49  50 NE9       30.06R
EKALAKA          N/A     63  42  46 CALM      30.08R
FORSYTH          N/A     66  50  55 E5        30.06S
LAUREL           N/A     62  46  55 CALM      30.11F
ROUNDUP          N/A     64  45  50 CALM      30.00S
$$

REGIONAL REPORTS...DAKOTAS

CITY           SKY/WX    TMP DP  RH WIND       PRES   REMARKS
WILLISTON      CLEAR     63  53  70 W12       29.98R
MINOT          CLEAR     69  59  70 W13       29.88R
DICKINSON      CLEAR     56  51  84 NW9       30.01R
CROSBY           N/A     59  57  94 W10       29.96R
WATFORD CITY     N/A    N/A N/A N/A MISG        N/A
BISMARCK       CLEAR     67  58  72 W6        29.94R
GRAND FORKS    CLEAR     67  63  87 SW7       29.74R
FARGO          CLEAR     70  68  93 SW6       29.78S
BUFFALO SD       N/A     65  46  50 N14       30.00R
RAPID CITY     CLEAR     59  42  53 NW9       30.07R
$$

REGIONAL REPORTS...WYOMING/IDAHO/WASHINGTON

CITY           SKY/WX    TMP DP  RH WIND       PRES   REMARKS
GILLETTE       CLEAR     55  38  52 CALM      30.13R
SHERIDAN       CLEAR     60  42  51 CALM      30.15R
BUFFALO WY     CLEAR     64  35  34 NW7       30.21R
CODY           CLEAR     64  39  39 N8        30.19S
YELLOWSTONE LA   N/A     47  35  63 CALM      30.37R
IDAHO FALLS    CLEAR     69  29  22 S15       30.11R
SALMON         CLEAR     61  43  51 CALM      30.13R
BOISE          CLEAR     71  36  27 CALM      30.05S
SPOKANE        CLEAR     68  43  40 CALM      30.12S
$$

REGIONAL REPORTS...ALBERTA

CITY           SKY/WX    TMP DP  RH WIND       PRES   REMARKS
EDMONTON       PTCLDY    52  50  93 SW2       29.95S
CALGARY        PTCLDY    61  52  72 VRB2      30.06R
LETHBRIDGE     CLEAR     64  46  52 W16G23    30.02S
MEDICINE HAT   CLEAR     61  54  77 SE5       29.97S
WATERTON GATE    N/A     61  43  51 SW14        N/A
CARDSTON         N/A     63  43  48 W8          N/A
MILK RIVER       N/A     55  46  71 NW9         N/A
$$

REGIONAL REPORTS...SASKATCHEWAN

CITY           SKY/WX    TMP DP  RH WIND       PRES   REMARKS
SWIFT CURRENT  CLEAR     54  52  94 SW10      29.99S
SASKATOON      PTCLDY    57  54  88 W9        29.91R
VAL MARIE        N/A     50  48  93 SE1         N/A
ROCKGLEN         N/A     57  52  82 W3          N/A
$$




USA.gov is the U.S. government's official web portal to all federal, state and local government web resources and services.